sat.trackr.live / text

‹ back to catalog

GLOBAL-13

NORAD 49773 · 2021-115BB

PAYLOAD ACTIVE UNKNOWN

§ Identity

Operator
Country
US
Launch date
2021-12-02
Launch site
AFETR
Launch vehicle
Mass (kg)
RCS (m²)

External: N2YO · Heavens-Above · Gunter

§ Orbital elements

Epoch: 2026-09-08T18:05:56.238432Z

Period
92.96 min
Inclination
53.1977°
Eccentricity
0.0002737
Mean motion
15.49004260 rev/d
Perigee alt
417.8 km
Apogee alt
421.5 km
Semi-major
6,797.8 km
B*
4.6706e-4
RAAN
16.4373°
Arg perigee
44.2650°
Mean anomaly
315.8578°
Rev number
26,870

§ Raw data

GLOBAL-131 49773U 21115BB  26251.75412313  .00025336  00000+0  46706-3 0  99962 49773  53.1977  16.4373 0002737  44.2650 315.8578 15.49004260268709

JSON: /api/v1/satellites/49773 · /tle

For live sub-satellite position, see the globe view (requires WebGL).

§ Visibility from observer

Set your observer location to see the next 7 days of passes ≥ 10°. The values pass through the URL so the page stays shareable.

No JS? Fill the form by hand. The geolocation button needs JavaScript.

§ Radio — SatNOGS DB

ModeDescriptionDownlinkUplink
FM Telemetry 401.375 MHz
FM Telemetry (inactive) 400.876 MHz
BPSK UHF Unknown (inactive) 401.223 MHz

3 transmitters · refreshed weekly from db.satnogs.org